Rhinelander, WI

10:11 AM CST on January 18, 2018 (GMT -0600)
Rhinelander-Oneida County

Weather History for KRHI - November, 2013

Change the Weather History Date:

Wednesday, November 20, 2013

  Actual Average Record
Temperature  
Mean Temperature 33 °F 28 °F  
Max Temperature 35 °F 35 °F 65 °F (1936)
Min Temperature 30 °F 21 °F -10 °F (1921)
Degree Days  
Heating Degree Days 32 37  
Month to date heating degree days 649 641  
Since 1 July heating degree days 1751 1734  
Moisture  
Dew Point 27 °F    
Average Humidity 78    
Maximum Humidity 100    
Minimum Humidity 56    
Precipitation  
Precipitation 0.20 in 0.06 in 1.28 in (1992)
Month to date precipitation 1.97 1.25  
Year to date precipitation 35.08 29.37  
Snow  
Snow 2.70 in - 5.50 in (1966)
Month to date snowfall 5.8  
Since 1 July snowfall 8.0  
Since 1 September snowfall 8.0  
Snow Depth 2.00 in    
Sea Level Pressure  
Sea Level Pressure 30.09 in    
Wind  
Wind Speed 8 mph (SSE)    
Max Wind Speed 17 mph    
Max Gust Speed 25 mph    
Visibility 4 miles    
Events Snow    
T = Trace of Precipitation, MM = Missing Value Source: NWS Daily Summary

Daily Weather History Graph

Daily Weather History Graph

Search for Another Location

Airport or City:

Trip Planner

Search our weather history database for the weather conditions in past years. The results will help you decide how hot, cold, wet, or windy it might be!

Date:

Astronomy

Nov. 20, 2013 Rise Set
Actual Time 7:04 AM CST 4:22 PM CST
Civil Twilight 6:31 AM CST 4:54 PM CST
Nautical Twilight 5:55 AM CST 5:31 PM CST
Astronomical Twilight 5:20 AM CST 6:06 PM CST
Moon 7:05 PM CST (11/20) 9:29 AM CST (11/20)
Length of Visible Light 10h 23m
Length of Day
9h 17m
Waning Gibbous, 91% of the Moon is Illuminated
Nov 20
Waning Gibbous
Nov 25
Last Quarter
Dec 2
New
Dec 9
First Quarter
Dec 17
Full

Hourly Weather History & Observations

Time (CST) Temp. Windchill Dew Point Humidity Pressure Visibility Wind Dir Wind Speed Gust Speed Precip Events Conditions
12:53 AM 32.0 °F 24.2 °F 21.9 °F 66% 30.15 in 10.0 mi South 9.2 mph 18.4 mph N/A   Overcast
1:53 AM 32.0 °F 23.6 °F 21.9 °F 66% 30.15 in 10.0 mi South 10.4 mph 23.0 mph N/A   Overcast
2:53 AM 33.1 °F 24.4 °F 23.0 °F 66% 30.16 in 10.0 mi South 11.5 mph 20.7 mph N/A   Overcast
3:53 AM 32.0 °F 23.0 °F 24.1 °F 73% 30.16 in 10.0 mi South 11.5 mph 25.3 mph N/A   Overcast
4:53 AM 33.1 °F 23.9 °F 23.0 °F 66% 30.14 in 10.0 mi South 12.7 mph 19.6 mph N/A   Overcast
5:53 AM 33.1 °F 24.4 °F 23.0 °F 66% 30.13 in 10.0 mi South 11.5 mph 25.3 mph N/A   Overcast
6:53 AM 32.0 °F 22.1 °F 24.1 °F 73% 30.13 in 10.0 mi South 13.8 mph 21.9 mph N/A   Overcast
7:53 AM 33.1 °F 24.9 °F 24.1 °F 70% 30.13 in 10.0 mi SSE 10.4 mph 19.6 mph N/A   Overcast
8:53 AM 34.0 °F 26.0 °F 23.0 °F 64% 30.15 in 10.0 mi South 10.4 mph - N/A   Overcast
9:53 AM 34.0 °F 25.5 °F 23.0 °F 64% 30.15 in 10.0 mi SSE 11.5 mph 19.6 mph N/A   Overcast
10:53 AM 35.1 °F 28.6 °F 23.0 °F 61% 30.14 in 10.0 mi South 8.1 mph 21.9 mph N/A   Overcast
11:53 AM 35.1 °F 27.4 °F 21.9 °F 59% 30.13 in 10.0 mi South 10.4 mph 23.0 mph N/A   Overcast
12:53 PM 35.1 °F 27.4 °F 23.0 °F 61% 30.14 in 10.0 mi South 10.4 mph - N/A   Overcast
1:12 PM 33.8 °F 23.5 °F 24.8 °F 70% 30.09 in 2.5 mi SSW 16.1 mph 20.7 mph 0.00 in Snow Light Snow
1:19 PM 33.8 °F 24.8 °F 26.6 °F 75% 30.09 in 0.8 mi South 12.7 mph 20.7 mph 0.00 in Snow Light Snow
1:30 PM 32.0 °F 25.6 °F 28.4 °F 87% 30.08 in 1.5 mi South 6.9 mph - 0.00 in Snow Light Snow
1:53 PM 30.9 °F 26.2 °F 28.9 °F 92% 30.13 in 1.5 mi SE 4.6 mph - 0.00 in Snow Light Snow
2:03 PM 30.2 °F 24.3 °F 28.4 °F 93% 30.06 in 2.5 mi SE 5.8 mph - 0.00 in Snow Light Snow
2:10 PM 30.2 °F 24.3 °F 28.4 °F 93% 30.06 in 6.0 mi SE 5.8 mph - 0.00 in Snow Light Snow
2:53 PM 32.0 °F 26.4 °F 27.0 °F 82% 30.11 in 10.0 mi ESE 5.8 mph - 0.00 in   Overcast
3:53 PM 33.1 °F 27.7 °F 25.0 °F 72% 30.12 in 5.0 mi SSE 5.8 mph - 0.00 in Snow Light Snow
3:58 PM 32.0 °F 24.8 °F 26.6 °F 80% 30.06 in 1.5 mi South 8.1 mph - 0.00 in Snow Light Snow
4:03 PM 30.2 °F 23.4 °F 26.6 °F 86% 30.06 in 0.8 mi SSE 6.9 mph - 0.00 in Snow Light Snow
4:20 PM 30.2 °F 25.4 °F 28.4 °F 93% 30.06 in 0.8 mi SSE 4.6 mph - 0.02 in Snow Light Snow
4:27 PM 30.2 °F 25.4 °F 28.4 °F 93% 30.06 in 1.2 mi SE 4.6 mph - 0.02 in Snow Light Snow
4:53 PM 30.0 °F 24.1 °F 28.9 °F 96% 30.11 in 1.0 mi SE 5.8 mph - 0.03 in Snow Light Snow
5:02 PM 30.2 °F 23.4 °F 28.4 °F 93% 30.05 in 1.5 mi ESE 6.9 mph - 0.00 in Snow Light Snow
5:12 PM 30.2 °F 24.3 °F 28.4 °F 93% 30.05 in 2.5 mi SE 5.8 mph - 0.00 in Snow Light Snow
5:31 PM 30.2 °F 23.4 °F 28.4 °F 93% 30.06 in 1.5 mi SE 6.9 mph - 0.01 in Snow Light Snow
5:49 PM 30.2 °F 23.4 °F 28.4 °F 93% 30.05 in 1.5 mi SE 6.9 mph - 0.01 in Snow Light Snow
5:53 PM 30.9 °F 25.2 °F 28.9 °F 92% 30.11 in 1.8 mi SE 5.8 mph - 0.01 in Snow Light Snow
5:57 PM 30.2 °F 24.3 °F 28.4 °F 93% 30.05 in 2.5 mi SE 5.8 mph - 0.00 in Snow Light Snow
6:11 PM 30.2 °F 23.4 °F 28.4 °F 93% 30.05 in 1.5 mi SE 6.9 mph - 0.00 in Snow Light Snow
6:29 PM 30.2 °F 24.3 °F 28.4 °F 93% 30.05 in 2.5 mi SSE 5.8 mph - 0.01 in Snow Light Snow
6:34 PM 30.2 °F 22.6 °F 28.4 °F 93% 30.05 in 3.0 mi SE 8.1 mph - 0.01 in Snow Light Snow
6:42 PM 30.2 °F 22.6 °F 28.4 °F 93% 30.05 in 2.5 mi SE 8.1 mph - 0.01 in Snow Light Snow
6:53 PM 30.0 °F 23.2 °F 28.9 °F 96% 30.11 in 1.2 mi SE 6.9 mph - 0.01 in Snow Light Snow
7:04 PM 30.2 °F 23.4 °F 28.4 °F 93% 30.04 in 1.5 mi SE 6.9 mph - 0.01 in Snow Light Snow
7:40 PM 30.2 °F 23.4 °F 28.4 °F 93% 30.05 in 1.8 mi SE 6.9 mph - 0.02 in Snow Light Snow
7:53 PM 30.9 °F 24.3 °F 28.9 °F 92% 30.11 in 1.8 mi SSE 6.9 mph - 0.02 in Snow Light Snow
8:09 PM 30.2 °F 24.3 °F 28.4 °F 93% 30.05 in 1.2 mi SSE 5.8 mph - 0.01 in Snow Light Snow
8:25 PM 30.2 °F 24.3 °F 28.4 °F 93% 30.06 in 1.0 mi SSE 5.8 mph - 0.02 in Snow Light Snow
8:33 PM 30.2 °F 24.3 °F 28.4 °F 93% 30.06 in 0.8 mi SSE 5.8 mph - 0.03 in Snow Light Snow
8:37 PM 30.2 °F 24.3 °F 28.4 °F 93% 30.05 in 1.0 mi SSE 5.8 mph - 0.03 in Snow Light Snow
8:48 PM 30.2 °F 24.3 °F 28.4 °F 93% 30.05 in 0.8 mi SE 5.8 mph - 0.04 in Snow Light Snow
8:53 PM 30.0 °F 25.2 °F 28.9 °F 96% 30.11 in 0.8 mi SE 4.6 mph - 0.04 in Snow Light Snow
8:56 PM 30.2 °F 25.4 °F 28.4 °F 93% 30.05 in 1.0 mi SE 4.6 mph - 0.00 in Snow Light Snow
9:41 PM 30.2 °F 26.7 °F 30.2 °F 100% 30.05 in 0.8 mi SE 3.5 mph - 0.03 in Snow Light Snow
9:50 PM 30.2 °F - 30.2 °F 100% 30.05 in 1.0 mi Calm Calm - 0.04 in Snow Light Snow
9:53 PM 30.9 °F - 30.0 °F 96% 30.11 in 1.0 mi Calm Calm - 0.04 in Snow Light Snow
10:38 PM 30.2 °F - 30.2 °F 100% 30.06 in 1.0 mi Calm Calm - 0.03 in Snow Light Snow
10:53 PM 30.9 °F - 30.0 °F 96% 30.11 in 1.2 mi Calm Calm - 0.03 in Snow Light Snow
11:07 PM 30.2 °F - 30.2 °F 100% 30.06 in 1.2 mi Calm Calm - 0.01 in Snow Light Snow
11:32 PM 30.2 °F 26.7 °F 30.2 °F 100% 30.06 in 2.0 mi SE 3.5 mph - 0.01 in   Overcast
11:47 PM 30.2 °F 26.7 °F 30.2 °F 100% 30.05 in 3.0 mi SE 3.5 mph - 0.01 in   Overcast
11:53 PM 30.9 °F 27.5 °F 30.0 °F 96% 30.11 in 3.0 mi SE 3.5 mph - 0.01 in   Overcast